Weather History for KCRX - October, 2012

Change the Weather History Date:

Saturday, October 27, 2012

  Actual Average (KTUP) Record (KTUP)
Temperature  
Mean Temperature 50 °F 60 °F  
Max Temperature 55 °F 72 °F 90 °F (1939)
Min Temperature 44 °F 47 °F 27 °F (1982)
Degree Days  
Heating Degree Days 16 7  
Month to date heating degree days 107  
Since 1 July heating degree days 119  
Cooling Degree Days 0 1  
Month to date cooling degree days 72  
Year to date cooling degree days 2030  
Moisture  
Dew Point 38 °F    
Average Humidity 69    
Maximum Humidity 87    
Minimum Humidity 54    
Precipitation  
Precipitation 0.00 in 0.13 in 1.94 in (1995)
Month to date precipitation 3.62  
Year to date precipitation 43.53  
Snow  
Snow 0.00 in 0.00 in 0.00 in (2002)
Month to date snowfall 0.0  
Since 1 July snowfall 0.0  
Since 1 September snowfall 0.0  
Snow Depth -    
Sea Level Pressure  
Sea Level Pressure 30.09 in    
Wind  
Wind Speed 9 mph (North)    
Max Wind Speed 14 mph    
Max Gust Speed 21 mph    
Visibility 10 miles    
Events      
T = Trace of Precipitation, MM = Missing Value Source: NWS Daily Summary

Daily Weather History Graph

Daily Weather History Graph

Search for Another Location

Airport or City:

Trip Planner

Search our weather history database for the weather conditions in past years. The results will help you decide how hot, cold, wet, or windy it might be!

Date:

Astronomy

Oct. 27, 2012 Rise Set
Actual Time 7:11 AM CDT 6:04 PM CDT
Civil Twilight 6:45 AM CDT 6:30 PM CDT
Nautical Twilight 6:15 AM CDT 7:00 PM CDT
Astronomical Twilight 5:46 AM CDT 7:29 PM CDT
Moon 4:48 PM CDT (10/27) 5:09 AM CDT (10/27)
Length of Visible Light 11h 45m
Length of Day
10h 53m
Waxing Gibbous, 96% of the Moon is Illuminated
Oct 27
Waxing Gibbous
Oct 29
Full
Nov 6
Last Quarter
Nov 13
New
Nov 20
First Quarter

Hourly Weather History & Observations

Time (CDT) Temp. Windchill Dew Point Humidity Pressure Visibility Wind Dir Wind Speed Gust Speed Precip Events Conditions
12:05 AM 44.6 °F 39.7 °F 41.0 °F 87% 30.13 in 10.0 mi North 9.2 mph - N/A   Overcast
12:25 AM 44.6 °F 39.2 °F 41.0 °F 87% 30.13 in 10.0 mi North 10.4 mph 16.1 mph N/A   Overcast
12:45 AM 44.6 °F 39.2 °F 39.2 °F 81% 30.13 in 10.0 mi North 10.4 mph 16.1 mph N/A   Overcast
1:05 AM 44.6 °F 40.2 °F 39.2 °F 81% 30.13 in 10.0 mi North 8.1 mph - N/A   Overcast
1:25 AM 44.6 °F 40.2 °F 39.2 °F 81% 30.13 in 10.0 mi North 8.1 mph - N/A   Overcast
1:45 AM 44.6 °F 39.2 °F 39.2 °F 81% 30.12 in 10.0 mi North 10.4 mph - N/A   Overcast
2:05 AM 44.6 °F 39.7 °F 39.2 °F 81% 30.12 in 10.0 mi NNW 9.2 mph - N/A   Overcast
2:25 AM 44.6 °F 40.2 °F 39.2 °F 81% 30.12 in 10.0 mi North 8.1 mph - N/A   Overcast
2:45 AM 44.6 °F 40.7 °F 39.2 °F 81% 30.12 in 10.0 mi North 6.9 mph - N/A   Overcast
3:05 AM 44.6 °F 40.2 °F 39.2 °F 81% 30.11 in 10.0 mi NNW 8.1 mph - N/A   Overcast
3:25 AM 44.6 °F 39.7 °F 39.2 °F 81% 30.11 in 10.0 mi North 9.2 mph - N/A   Overcast
3:45 AM 44.6 °F 40.2 °F 39.2 °F 81% 30.11 in 10.0 mi North 8.1 mph - N/A   Overcast
4:05 AM 44.6 °F 39.7 °F 39.2 °F 81% 30.11 in 10.0 mi North 9.2 mph - N/A   Overcast
4:25 AM 44.6 °F 38.8 °F 37.4 °F 76% 30.10 in 10.0 mi North 11.5 mph 16.1 mph N/A   Overcast
4:45 AM 44.6 °F 40.2 °F 37.4 °F 76% 30.10 in 10.0 mi North 8.1 mph - N/A   Overcast
5:05 AM 44.6 °F 40.2 °F 37.4 °F 76% 30.10 in 10.0 mi North 8.1 mph - N/A   Overcast
5:25 AM 44.6 °F 39.7 °F 37.4 °F 76% 30.11 in 10.0 mi North 9.2 mph - N/A   Overcast
6:05 AM 44.6 °F 41.4 °F 37.4 °F 76% 30.11 in 10.0 mi North 5.8 mph - N/A   Overcast
6:25 AM 44.6 °F 40.2 °F 37.4 °F 76% 30.11 in 10.0 mi North 8.1 mph - N/A   Overcast
6:45 AM 44.6 °F 40.7 °F 37.4 °F 76% 30.12 in 10.0 mi North 6.9 mph - N/A   Overcast
7:05 AM 44.6 °F 39.7 °F 37.4 °F 76% 30.12 in 10.0 mi North 9.2 mph - N/A   Overcast
7:45 AM 44.6 °F 40.7 °F 37.4 °F 76% 30.12 in 10.0 mi North 6.9 mph - N/A   Overcast
8:05 AM 44.6 °F 40.2 °F 37.4 °F 76% 30.12 in 10.0 mi North 8.1 mph - N/A   Overcast
8:25 AM 44.6 °F 40.2 °F 37.4 °F 76% 30.12 in 10.0 mi North 8.1 mph - N/A   Overcast
8:45 AM 46.4 °F 41.5 °F 37.4 °F 71% 30.12 in 10.0 mi North 10.4 mph - N/A   Overcast
9:05 AM 46.4 °F 41.5 °F 39.2 °F 76% 30.12 in 10.0 mi North 10.4 mph 16.1 mph N/A   Overcast
9:20 AM 46.4 °F 42.4 °F 37.4 °F 71% 30.12 in 10.0 mi NNW 8.1 mph 18.4 mph N/A   Overcast
9:45 AM 46.4 °F 41.9 °F 39.2 °F 76% 30.12 in 10.0 mi North 9.2 mph - N/A   Overcast
10:05 AM 46.4 °F 41.1 °F 39.2 °F 76% 30.12 in 10.0 mi North 11.5 mph 20.7 mph N/A   Overcast
10:25 AM 48.2 °F - 39.2 °F 71% 30.12 in 10.0 mi North 10.4 mph 19.6 mph N/A   Overcast
10:45 AM 48.2 °F - 39.2 °F 71% 30.12 in 10.0 mi North 13.8 mph 17.3 mph N/A   Overcast
11:05 AM 48.2 °F - 39.2 °F 71% 30.13 in 10.0 mi NNE 9.2 mph - N/A   Overcast
11:25 AM 48.2 °F - 39.2 °F 71% 30.13 in 10.0 mi North 9.2 mph 17.3 mph N/A   Overcast
12:05 PM 48.2 °F - 39.2 °F 71% 30.11 in 10.0 mi North 11.5 mph 17.3 mph N/A   Overcast
12:25 PM 50.0 °F - 39.2 °F 66% 30.11 in 10.0 mi North 11.5 mph 17.3 mph N/A   Overcast
12:45 PM 48.2 °F - 39.2 °F 71% 30.10 in 10.0 mi North 8.1 mph 16.1 mph N/A   Overcast
1:05 PM 50.0 °F - 39.2 °F 66% 30.09 in 10.0 mi North 12.7 mph 19.6 mph N/A   Overcast
1:25 PM 50.0 °F - 39.2 °F 66% 30.08 in 10.0 mi NNW 13.8 mph 18.4 mph N/A   Overcast
1:45 PM 50.0 °F - 39.2 °F 66% 30.07 in 10.0 mi North 13.8 mph 19.6 mph N/A   Overcast
2:05 PM 51.8 °F - 39.2 °F 62% 30.06 in 10.0 mi North 11.5 mph 19.6 mph N/A   Overcast
2:25 PM 51.8 °F - 39.2 °F 62% 30.06 in 10.0 mi North 11.5 mph 20.7 mph N/A   Overcast
2:45 PM 51.8 °F - 41.0 °F 67% 30.05 in 10.0 mi North 9.2 mph 17.3 mph N/A   Overcast
3:05 PM 53.6 °F - 41.0 °F 62% 30.04 in 10.0 mi North 6.9 mph - N/A   Overcast
3:25 PM 55.4 °F - 39.2 °F 54% 30.04 in 10.0 mi NNE 11.5 mph 20.7 mph N/A   Overcast
3:45 PM 55.4 °F - 39.2 °F 54% 30.05 in 10.0 mi NE 11.5 mph 16.1 mph N/A   Mostly Cloudy
4:05 PM 55.4 °F - 39.2 °F 54% 30.05 in 10.0 mi NNE 9.2 mph - N/A   Overcast
4:25 PM 55.4 °F - 39.2 °F 54% 30.05 in 10.0 mi North 6.9 mph - N/A   Overcast
4:45 PM 55.4 °F - 39.2 °F 54% 30.05 in 10.0 mi North 9.2 mph - N/A   Mostly Cloudy
5:05 PM 53.6 °F - 39.2 °F 58% 30.05 in 10.0 mi North 6.9 mph - N/A   Mostly Cloudy
5:25 PM 53.6 °F - 37.4 °F 54% 30.05 in 10.0 mi NNW 8.1 mph - N/A   Mostly Cloudy
5:45 PM 53.6 °F - 37.4 °F 54% 30.05 in 10.0 mi NNW 9.2 mph - N/A   Mostly Cloudy
6:05 PM 51.8 °F - 37.4 °F 58% 30.05 in 10.0 mi NNW 6.9 mph - N/A   Scattered Clouds
6:25 PM 50.0 °F - 37.4 °F 62% 30.06 in 10.0 mi North 6.9 mph - N/A   Mostly Cloudy
6:45 PM 50.0 °F - 37.4 °F 62% 30.07 in 10.0 mi NNW 6.9 mph - N/A   Overcast
7:05 PM 50.0 °F - 37.4 °F 62% 30.07 in 10.0 mi NNW 5.8 mph - N/A   Overcast
7:25 PM 48.2 °F - 37.4 °F 66% 30.07 in 10.0 mi NNW 6.9 mph - N/A   Overcast
7:45 PM 48.2 °F - 37.4 °F 66% 30.07 in 10.0 mi NNW 6.9 mph - N/A   Overcast
8:05 PM 48.2 °F - 37.4 °F 66% 30.07 in 10.0 mi NNW 6.9 mph - N/A   Overcast
8:25 PM 48.2 °F - 37.4 °F 66% 30.07 in 10.0 mi NNW 6.9 mph - N/A   Overcast
8:45 PM 48.2 °F - 35.6 °F 62% 30.07 in 10.0 mi NNW 6.9 mph - N/A   Overcast
9:05 PM 48.2 °F - 35.6 °F 62% 30.07 in 10.0 mi NNW 5.8 mph - N/A   Overcast
9:45 PM 50.0 °F - 35.6 °F 58% 30.08 in 10.0 mi North 9.2 mph - N/A   Overcast
10:05 PM 50.0 °F - 35.6 °F 58% 30.08 in 10.0 mi North 6.9 mph - N/A   Overcast
10:25 PM 48.2 °F - 33.8 °F 58% 30.08 in 10.0 mi North 9.2 mph - N/A   Overcast
10:45 PM 48.2 °F - 35.6 °F 62% 30.08 in 10.0 mi NNW 8.1 mph - N/A   Overcast
11:05 PM 48.2 °F - 33.8 °F 58% 30.06 in 10.0 mi North 8.1 mph - N/A   Overcast
11:25 PM 48.2 °F - 33.8 °F 58% 30.05 in 10.0 mi North 6.9 mph - N/A   Overcast
11:45 PM 46.4 °F 42.4 °F 35.6 °F 66% 30.06 in 10.0 mi NNW 8.1 mph - N/A   Overcast